DLH597 LZIB-EDDM

Flight info

Callsign DLH597
Flight time N/A
Altitude 30000
Route TOVKA2G/13 TOVKA DCT BAGSI DCT MATIG DCT AMADI Q113 NAPSA NAPSA4A
Aircraft A35K/H-SDE2E3GHIJ3J4J5LM1ORWXY/LB1D1

Departure

Time 2026-05-04 17:43
Airport M. R. Štefánik Airport (LZIB)

Arrival

Time N/A
Airport Munich Airport (EDDM)
Time Latitude Longitude Altitude Speed Heading
2026-05-04 17:21 48.17116 17.20409 449 ft 0 kts 310°
2026-05-04 17:36 48.17111 17.20417 450 ft 2 kts 324°
2026-05-04 17:37 48.17097 17.20425 448 ft 2 kts 14°
2026-05-04 17:37 48.17080 17.20419 447 ft 4 kts 16°
2026-05-04 17:37 48.17057 17.20404 447 ft 3 kts 33°
2026-05-04 17:37 48.17046 17.20391 447 ft 0 kts 45°
2026-05-04 17:40 48.17046 17.20393 450 ft 0 kts 45°
2026-05-04 17:40 48.17073 17.20433 450 ft 12 kts 45°
2026-05-04 17:40 48.17120 17.20503 450 ft 15 kts 43°
2026-05-04 17:41 48.17210 17.20561 450 ft 13 kts 346°
2026-05-04 17:41 48.17280 17.20482 450 ft 11 kts 315°
2026-05-04 17:41 48.17340 17.20392 450 ft 13 kts 314°
2026-05-04 17:41 48.17405 17.20319 450 ft 10 kts 335°
2026-05-04 17:42 48.17469 17.20319 450 ft 9 kts 20°
2026-05-04 17:42 48.17530 17.20384 449 ft 11 kts 54°
2026-05-04 17:42 48.17515 17.20483 450 ft 20 kts 127°
2026-05-04 17:42 48.17276 17.20857 449 ft 87 kts 134°
2026-05-04 17:43 48.16672 17.21802 462 ft 164 kts 137°
2026-05-04 17:43 48.15760 17.23159 1116 ft 202 kts 139°
2026-05-04 17:43 48.14703 17.24673 1913 ft 224 kts 141°
2026-05-04 17:43 48.13621 17.26319 3015 ft 216 kts 137°
2026-05-04 17:44 48.12637 17.27917 4040 ft 205 kts 138°
2026-05-04 17:44 48.11669 17.29485 4900 ft 208 kts 137°
2026-05-04 17:44 48.10862 17.31357 5592 ft 224 kts 114°
2026-05-04 17:44 48.10795 17.33720 6351 ft 238 kts 75°
2026-05-04 17:45 48.11719 17.35777 7100 ft 244 kts 36°
2026-05-04 17:45 48.13322 17.36685 7672 ft 260 kts
2026-05-04 17:45 48.15099 17.36087 8072 ft 277 kts 326°
2026-05-04 17:45 48.16412 17.34017 8849 ft 278 kts 294°
2026-05-04 17:46 48.17203 17.31359 9812 ft 282 kts 289°
2026-05-04 17:46 48.17983 17.28637 10747 ft 287 kts 290°
2026-05-04 17:46 48.18828 17.25906 11469 ft 291 kts 292°
2026-05-04 17:46 48.19727 17.23157 11883 ft 295 kts 293°
2026-05-04 17:47 48.20656 17.20405 11992 ft 296 kts 294°
2026-05-04 17:47 48.21597 17.17666 11984 ft 292 kts 294°
2026-05-04 17:47 48.22499 17.15066 12256 ft 268 kts 294°
2026-05-04 17:47 48.23337 17.12606 12769 ft 269 kts 292°
2026-05-04 17:48 48.24103 17.09958 13090 ft 292 kts 288°
2026-05-04 17:48 48.24771 17.06907 13469 ft 315 kts 282°
2026-05-04 17:48 48.25306 17.03677 14027 ft 329 kts 280°
2026-05-04 17:48 48.25831 17.00296 14801 ft 335 kts 280°
2026-05-04 17:49 48.26362 16.96867 15630 ft 340 kts 281°
2026-05-04 17:49 48.26791 16.93357 16450 ft 343 kts 274°
2026-05-04 17:49 48.26847 16.89772 17278 ft 345 kts 266°
2026-05-04 17:49 48.26692 16.86155 18086 ft 350 kts 263°
2026-05-04 17:50 48.26440 16.82496 18848 ft 354 kts 262°
2026-05-04 17:50 48.26249 16.80050 19380 ft 357 kts 262°
2026-05-04 17:50 48.25950 16.76345 20176 ft 360 kts 262°
2026-05-04 17:50 48.25559 16.71390 21240 ft 364 kts 263°
2026-05-04 17:51 48.25271 16.67593 21980 ft 370 kts 263°
2026-05-04 17:51 48.24988 16.63733 22691 ft 375 kts 264°
2026-05-04 17:51 48.24704 16.59800 23335 ft 382 kts 264°
2026-05-04 17:51 48.24419 16.55816 23777 ft 384 kts 264°
2026-05-04 17:52 48.24211 16.53530 23878 ft 374 kts 251°
2026-05-04 17:52 48.23610 16.49850 23932 ft 360 kts 244°
2026-05-04 17:52 48.22873 16.46189 23927 ft 373 kts 245°
2026-05-04 17:52 48.21994 16.41077 23932 ft 391 kts 251°
2026-05-04 17:53 48.21652 16.38365 23933 ft 393 kts 253°
2026-05-04 17:53 48.21275 16.34312 23936 ft 390 kts 256°
2026-05-04 17:53 48.20971 16.30272 23960 ft 388 kts 254°
2026-05-04 17:53 48.20543 16.26355 23939 ft 386 kts 262°
2026-05-04 17:54 48.20246 16.22357 23920 ft 386 kts 265°
2026-05-04 17:54 48.20024 16.18345 23919 ft 385 kts 265°
2026-05-04 17:54 48.19816 16.14336 23916 ft 383 kts 265°
2026-05-04 17:54 48.19597 16.10347 23920 ft 384 kts 265°
2026-05-04 17:55 48.19360 16.06391 23918 ft 386 kts 265°
2026-05-04 17:55 48.19101 16.02380 23916 ft 386 kts 264°
2026-05-04 17:55 48.18532 15.94100 23912 ft 387 kts 264°
2026-05-04 17:56 48.18246 15.90049 23911 ft 387 kts 264°